Theta_e
333 333 332 331 330 330 331 330 329 330 331 333 335 337 336 338 324 314 327 338 344 344 344 344 344 344 344 344 344 343 343 343 343
332 330 330 328 328 328 329 328 328 330 331 332 334 335 335 327 331 335 335 336 343 343 343 342 342 343 342 342 342 342 342 342 342
328 327 327 326 326 326 326 326 328 329 330 331 332 333 334 330 329 329 331 340 341 342 342 341 341 340 339 339 338 337 337 337 336
326 325 325 324 324 324 324 325 328 328 329 328 330 332 331 323 326 326 327 337 338 339 339 338 338 337 338 337 337 336 336 334 335
323 322 323 323 322 322 322 322 326 326 325 326 329 329 328 317 322 325 329 335 336 336 337 336 335 334 335 334 334 334 334 334 332
314 319 320 320 320 319 319 319 322 325 326 327 327 328 315 317 322 323 335 334 334 333 335 334 334 332 331 331 331 331 332 332 332
310 314 318 317 316 317 317 316 318 323 315 317 322 313 312 316 319 321 331 333 334 333 331 332 332 331 329 328 327 328 329 330 330
307 306 307 305 314 308 312 312 311 313 315 314 313 313 312 315 316 320 326 329 330 330 329 328 328 326 325 324 324 323 324 327 328
304 304 304 304 305 305 308 310 310 312 314 313 312 311 310 311 312 314 322 323 324 325 324 324 324 324 323 323 321 321 322 325 327
304 303 304 304 305 304 305 308 311 312 313 314 313 310 308 308 310 310 319 319 319 319 319 320 321 321 322 321 321 321 321 323 327
305 304 304 303 304 304 303 305 308 311 312 313 313 310 308 306 308 307 310 315 315 316 317 319 320 321 321 321 320 319 319 321 326
305 304 304 303 304 304 304 304 305 309 312 310 311 310 308 306 306 307 307 309 313 313 314 315 316 317 319 320 319 319 319 320 323
305 304 303 304 304 304 303 303 303 302 303 305 308 309 309 307 306 307 306 305 306 308 310 310 311 313 315 317 318 318 318 318 319
305 305 303 304 304 303 303 302 302 301 302 302 307 308 308 308 309 306 306 304 305 301 307 307 307 308 310 313 315 316 316 316 317
306 305 305 305 304 303 303 302 302 301 300 305 302 303 308 309 307 306 308 306 306 304 302 300 300 304 305 308 311 313 314 315 315
306 305 305 305 304 303 302 302 301 301 301 301 301 301 303 306 307 308 307 306 306 305 304 302 300 299 303 305 306 309 312 313 314
308 306 306 306 305 304 304 303 302 301 301 299 299 297 299 302 306 306 307 305 306 305 305 303 302 300 299 299 302 305 308 311 312
308 308 308 307 306 305 305 304 303 301 301 301 298 295 294 296 302 301 301 302 303 305 305 304 304 301 299 300 301 303 304 307 310
310 310 309 308 307 305 305 306 303 302 300 301 303 299 298 294 293 299 300 301 303 300 301 302 302 301 299 303 302 302 302 305 307
311 310 309 308 308 306 305 303 303 302 301 300 300 298 298 297 294 292 295 299 299 300 300 299 299 301 300 299 301 304 302 304 306
Wind_Speed
12 12 12 12 11 11 11 11 11 11 11 10 10 11 11 11 4 5 7 7 12 11 11 11 11 12 12 13 13 12 11 10 8
13 12 12 11 11 11 11 11 11 12 12 10 11 13 15 8 10 11 8 7 13 12 14 13 13 14 14 15 15 16 16 16 16
13 12 12 11 11 11 11 11 12 12 11 10 10 12 12 10 13 10 7 13 15 16 15 14 15 15 15 15 15 14 14 14 15
13 12 11 11 11 11 11 11 11 11 9 9 11 14 15 8 8 9 7 11 15 15 15 14 15 15 16 16 16 15 15 15 15
12 11 11 11 11 10 9 9 10 9 7 7 9 11 12 11 10 8 6 12 13 12 14 15 14 14 15 16 15 16 16 17 14
8 9 9 10 9 9 7 5 6 4 4 3 7 9 6 9 7 5 10 12 13 13 14 15 15 15 14 15 15 16 15 14 15
7 6 7 8 6 6 4 2 3 5 3 2 4 4 7 8 6 5 15 15 16 16 15 15 15 15 15 14 14 14 15 14 14
3 3 2 2 5 3 2 1 2 4 3 4 4 5 6 6 5 8 15 14 14 13 14 13 13 10 11 13 12 12 11 12 12
4 3 2 3 2 3 3 2 2 4 5 6 6 6 5 5 4 6 11 13 13 10 10 10 10 11 11 12 12 12 11 11 13
4 3 4 3 3 3 2 3 3 4 4 5 6 6 6 7 4 3 11 12 12 12 11 11 11 11 11 12 13 14 13 10 14
4 4 4 3 3 3 3 2 2 2 4 4 4 5 5 5 6 4 5 11 11 11 11 11 11 11 11 12 12 13 12 10 15
3 4 4 3 2 4 3 3 3 4 2 4 4 4 4 4 5 5 4 5 10 10 11 10 10 10 11 11 11 12 12 9 12
3 4 3 3 3 2 3 3 2 2 3 1 2 3 3 3 5 3 4 4 3 7 8 8 9 9 10 10 10 10 11 10 8
3 4 3 3 2 3 2 3 2 2 2 2 1 1 2 3 3 4 6 4 4 3 5 5 5 6 7 8 8 9 9 9 9
4 3 3 3 2 2 1 3 2 2 1 3 1 1 2 2 3 3 4 5 5 3 4 3 2 4 5 7 8 8 8 8 8
5 4 3 2 3 3 2 1 1 2 2 2 3 3 3 3 3 3 3 5 6 5 4 2 2 1 1 2 5 7 7 7 7
4 4 4 4 3 3 2 2 1 1 1 1 0 2 3 2 4 2 2 2 3 4 4 4 3 3 2 3 1 4 6 7 6
3 5 4 3 2 3 3 2 1 1 1 3 3 2 1 2 1 2 2 2 2 3 4 5 4 4 3 4 3 2 4 6 7
4 4 3 4 3 2 3 3 1 1 1 1 1 2 3 1 3 3 2 1 2 4 2 2 3 4 4 4 6 4 4 6 7
5 4 3 3 2 2 3 2 1 1 0 0 1 1 1 2 2 3 3 3 3 3 3 2 2 2 3 3 3 6 5 7 8
Wind_Direction
87 82 77 74 68 67 63 59 58 53 49 39 22 7 351 312 249 59 61 49 57 56 58 62 63 59 53 46 44 40 38 27 24
88 85 79 73 69 68 65 58 57 57 50 37 20 4 351 8 64 54 35 46 57 62 61 59 57 53 54 54 54 47 44 42 40
88 84 81 78 74 71 67 61 58 57 49 35 19 360 5 69 65 49 26 50 53 54 60 62 62 54 50 46 45 38 36 32 28
88 82 80 78 76 73 69 66 64 58 44 24 9 359 1 66 58 46 20 34 49 52 62 64 61 56 55 51 48 46 40 32 24
94 81 80 78 77 72 72 76 76 71 45 21 6 349 339 64 54 32 354 43 50 50 57 59 59 56 54 48 44 40 37 35 26
85 89 86 84 80 78 77 97 106 105 98 7 352 347 64 64 54 12 23 68 63 61 59 58 59 57 50 44 31 28 30 27 26
107 118 119 107 104 108 130 162 178 211 274 327 338 52 81 78 64 17 37 60 60 53 50 51 53 51 42 36 32 23 19 23 20
152 140 153 173 175 226 213 261 18 39 67 68 59 51 70 91 77 29 39 45 50 47 44 38 33 31 33 33 30 24 19 19 18
109 120 128 67 110 70 63 96 137 36 57 78 79 66 56 101 92 52 50 52 51 47 39 32 36 41 47 42 37 32 23 17 15
114 111 91 80 49 78 33 70 93 83 67 68 79 78 76 89 101 82 64 64 62 58 53 49 47 46 45 45 40 32 30 28 24
112 100 97 73 71 55 62 60 65 82 94 74 78 104 88 92 126 118 93 80 65 58 55 50 46 44 46 47 44 38 34 21 28
96 106 94 94 46 59 49 33 43 51 43 93 81 68 87 97 98 131 127 102 83 62 52 47 43 38 38 39 42 39 34 34 33
82 90 83 87 72 65 72 38 63 67 41 31 139 133 107 105 111 117 114 128 107 81 66 52 42 37 35 34 36 38 38 33 24
103 102 112 101 85 70 50 44 61 54 23 297 112 126 143 157 131 156 124 115 100 133 124 101 71 41 30 28 27 30 33 34 33
119 120 131 125 118 118 74 92 50 93 39 328 2 214 213 174 178 191 153 150 145 153 152 172 200 97 38 19 17 15 19 23 29
149 149 151 162 114 108 76 106 88 12 26 18 311 267 217 203 211 190 181 173 172 175 174 203 129 196 136 58 11 1 3 8 15
164 163 172 149 127 134 100 79 20 154 87 116 3 326 336 284 224 183 189 212 180 176 194 200 197 176 157 175 56 339 349 352 0
179 173 155 154 120 149 137 135 137 132 278 129 145 7 265 321 4 204 205 216 183 220 226 199 197 192 182 185 219 277 338 335 338
190 168 156 158 167 151 176 156 158 118 232 355 144 123 142 89 338 335 233 190 225 233 245 221 235 205 188 181 157 196 295 303 313
188 188 180 179 170 199 146 143 178 232 115 285 173 219 206 199 152 277 318 327 273 259 249 257 271 249 190 172 203 210 244 287 300